Location: Unspecified
(42.7170°S, 0.0000°E)
Time: 00:41:58
(UTC+00:00)

N. Korean satellite - Pass Details

Date: 30 May 2019
Orbit: 455 x 510 km, 97.2° (Epoch: 14 June)

Event Time Altitude Azimuth Distance (km) Brightness Sun altitude
Exits shadow 18:58:13 11° 198° (SSW) 1,679 9.4 -25.5°
Maximum altitude 19:01:02 23° 249° (WSW) 1,124 9.0 -26.0°
Drops below altitude 10° 19:04:04 10° 303° (WNW) 1,743 10.2 -26.6°
Sets 19:06:26 0° 317° (NW) 2,622 11.0 -27.0°
